Location: ????????
(54.9045°N, 39.1041°E)
Time: 12:08:52
(UTC+00:00)

Okean 1 - Pass Details

Date: 14 April 2024
Orbit: 507 x 529 km, 82.5° (Epoch: 26 May)

Event Time Altitude Azimuth Distance (km) Brightness Sun altitude
Exits shadow 23:25:51 12° 130° (SE) 1,589 5.6 -20.7°
Drops below altitude 10° 23:31:03 10° 39° (NE) 1,740 7.1 -20.3°
Enters shadow 00:27:55 -66° 193° (SSW) 12,240 10.1 -15.0°
Maximum altitude 01:03:45 45° 287° (WNW) 703 3.6 -11.0°
